Weather History for Lanai City, HI

Change the Weather History Date:

Tuesday, February 12, 2013

  Actual Average Record
Temperature  
Mean Temperature 69 °F -  
Max Temperature 75 °F 76 °F 82 °F (1998)
Min Temperature 63 °F 60 °F 39 °F (2001)
Cooling Degree Days 4    
Growing Degree Days 19 (Base 50)    
Moisture  
Dew Point 57 °F    
Average Humidity 69    
Maximum Humidity 78    
Minimum Humidity 55    
Precipitation  
Precipitation 0.00 in - - ()
Sea Level Pressure  
Sea Level Pressure 30.13 in    
Wind  
Wind Speed 18 mph (NE)    
Max Wind Speed 24 mph    
Max Gust Speed 33 mph    
Visibility 10 miles    
Events      
Averages and records for this station are not official NWS values.
T = Trace of Precipitation, MM = Missing Value Source: NWS Daily Summary

Daily Weather History Graph

Daily Weather History Graph

Search for Another Location

Airport:

Trip Planner

Search our weather history database for the weather conditions in past years. The results will help you decide how hot, cold, wet, or windy it might be!

Date:

Astronomy

Feb. 12, 2013 Rise Set
Actual Time 6:59 AM HST 6:25 PM HST
Civil Twilight 6:36 AM HST 6:47 PM HST
Nautical Twilight 6:10 AM HST 7:13 PM HST
Astronomical Twilight 5:44 AM HST 7:39 PM HST
Moon 8:31 AM HST (2/12) 9:04 PM HST (2/12)
Length of Visible Light 12h 11m
Length of Day
11h 25m
Waxing Crescent, 8% of the Moon is Illuminated
Feb 12
Waxing Crescent
Feb 17
First Quarter
Feb 25
Full
Mar 4
Last Quarter
Mar 11
New

Hourly Weather History & Observations

Time (HST) Temp. Dew Point Humidity Pressure Visibility Wind Dir Wind Speed Gust Speed Precip Events Conditions
12:56 AM 64.9 °F 57.9 °F 78% 30.17 in 10.0 mi NE 20.7 mph - N/A   Clear
1:56 AM 63.9 °F 55.9 °F 75% 30.16 in 10.0 mi NE 16.1 mph 24.2 mph N/A   Clear
2:56 AM 63.9 °F 54.0 °F 70% 30.13 in 10.0 mi ENE 18.4 mph - N/A   Clear
3:56 AM 63.9 °F 55.9 °F 75% 30.13 in 10.0 mi ENE 15.0 mph - N/A   Clear
4:56 AM 63.9 °F 55.9 °F 75% 30.13 in 10.0 mi East 15.0 mph 33.4 mph N/A   Clear
5:56 AM 63.9 °F 55.9 °F 75% 30.13 in 10.0 mi NE 24.2 mph 32.2 mph N/A   Clear
6:56 AM 63.9 °F 54.9 °F 72% 30.16 in 10.0 mi East 11.5 mph 24.2 mph N/A   Clear
7:56 AM 66.9 °F 54.9 °F 65% 30.14 in 10.0 mi NE 19.6 mph 27.6 mph N/A   Clear
8:56 AM 70.9 °F 56.8 °F 61% 30.17 in 10.0 mi NE 12.7 mph 18.4 mph N/A   Clear
9:56 AM 72.9 °F 56.8 °F 57% 30.16 in 10.0 mi ENE 11.5 mph - N/A   Clear
10:56 AM 73.9 °F 57.9 °F 57% 30.17 in 10.0 mi NE 17.3 mph 21.9 mph N/A   Partly Cloudy
11:56 AM 75.9 °F 59.0 °F 56% 30.13 in 10.0 mi NE 18.4 mph - N/A   Partly Cloudy
12:56 PM 74.8 °F 57.9 °F 55% 30.12 in 10.0 mi NE 21.9 mph 25.3 mph N/A   Scattered Clouds
1:56 PM 74.8 °F 59.0 °F 58% 30.09 in 10.0 mi NE 20.7 mph 27.6 mph N/A   Partly Cloudy
2:56 PM 73.9 °F 59.9 °F 61% 30.08 in 10.0 mi NE 19.6 mph - N/A   Clear
3:56 PM 72.9 °F 59.9 °F 64% 30.07 in 10.0 mi NE 23.0 mph 26.5 mph N/A   Partly Cloudy
4:56 PM 71.6 °F 59.0 °F 64% 30.13 in 10.0 mi ENE 17.3 mph 23.0 mph N/A   Scattered Clouds
5:56 PM 66.9 °F 59.9 °F 78% 30.10 in 10.0 mi NE 18.4 mph - N/A   Partly Cloudy
6:56 PM 64.9 °F 57.9 °F 78% 30.12 in 10.0 mi NE 12.7 mph 20.7 mph N/A   Clear
7:56 PM 64.9 °F 57.9 °F 78% 30.13 in 10.0 mi NE 17.3 mph - N/A   Clear
8:56 PM 64.9 °F 57.9 °F 78% 30.13 in 10.0 mi NE 18.4 mph 25.3 mph N/A   Clear
9:56 PM 63.9 °F 56.8 °F 78% 30.13 in 10.0 mi ENE 13.8 mph - N/A   Clear
10:56 PM 63.9 °F 55.9 °F 75% 30.14 in 10.0 mi NE 16.1 mph - N/A   Clear
11:56 PM 63.0 °F 54.9 °F 75% 30.13 in 10.0 mi NE 12.7 mph - N/A   Clear